カタログに戻る

STARLINK-5562

運用中通信SSO
NORAD 56336·PAYLOAD·🇺🇸 United States

打ち上げ Apr 27, 2023 から Vandenberg Space Force Base

Loading…

次のパス (今後24時間)

TLE

最新Source: CelesTrak SupGP

元期: Sep 15, 2026, 02:47 UTC

1 56336C 23058V   26258.11645833  .00529150  00000+0  31981-1 0  2587
2 56336  97.2848 252.2388 0001365  89.2565 112.6945 15.10496426    10

AllMySatでSTARLINK-5562をリアルタイム追跡

Download on the App Store